Time,TemperatureF,DewpointF,PressureIn,WindDirection,WindDirectionDegrees,WindSpeedMPH,WindSpeedGustMPH,Humidity,HourlyPrecipIn,Conditions,Clouds,dailyrainin,SoftwareType,DateUTC
2014-12-20 00:22:00,30.0,28.0,30.19,North,-999,0.0,-999.0,91,-99.99,,,-99.99,,2014-12-20 06:22:00,
2014-12-20 00:42:00,30.0,27.0,30.18,North,-999,0.0,-999.0,90,-99.99,,,-99.99,,2014-12-20 06:42:00,
2014-12-20 00:52:00,30.0,27.0,30.19,North,-999,0.0,-999.0,90,-99.99,,,-99.99,,2014-12-20 06:52:00,
2014-12-20 01:22:00,30.0,27.0,30.19,North,-999,0.0,-999.0,90,-99.99,,,-99.99,,2014-12-20 07:22:00,
2014-12-20 01:42:00,30.0,27.0,30.19,North,-999,0.0,-999.0,90,-99.99,,,-99.99,,2014-12-20 07:42:00,
2014-12-20 01:52:00,30.0,27.0,30.18,North,-999,0.0,-999.0,90,-99.99,,,-99.99,,2014-12-20 07:52:00,
2014-12-20 02:11:00,30.0,27.0,30.18,North,-999,0.0,-999.0,90,-99.99,,,-99.99,,2014-12-20 08:11:00,
2014-12-20 02:22:00,30.0,28.0,30.19,North,-999,0.0,-999.0,91,-99.99,,,-99.99,,2014-12-20 08:22:00,
2014-12-20 02:43:00,30.0,28.0,30.19,North,-999,0.0,-999.0,91,-99.99,,,-99.99,,2014-12-20 08:43:00,
2014-12-20 02:52:00,30.0,27.0,30.19,North,-999,0.0,-999.0,90,-99.99,,,-99.99,,2014-12-20 08:52:00,
2014-12-20 03:12:00,30.0,27.0,30.19,North,-999,0.0,-999.0,90,-99.99,,,-99.99,,2014-12-20 09:12:00,
2014-12-20 03:22:00,30.0,27.0,30.19,North,-999,0.0,-999.0,90,-99.99,,,-99.99,,2014-12-20 09:22:00,
2014-12-20 03:54:00,30.0,27.0,30.18,North,-999,0.0,-999.0,90,-99.99,,,-99.99,,2014-12-20 09:54:00,
2014-12-20 04:13:00,30.0,28.0,30.18,North,-999,0.0,-999.0,91,-99.99,,,-99.99,,2014-12-20 10:13:00,
2014-12-20 04:23:00,30.0,28.0,30.18,North,-999,0.0,-999.0,91,-99.99,,,-99.99,,2014-12-20 10:23:00,
2014-12-20 04:43:00,30.0,28.0,30.17,North,-999,0.0,-999.0,91,-99.99,,,-99.99,,2014-12-20 10:43:00,
2014-12-20 04:53:00,30.0,28.0,30.17,North,-999,0.0,-999.0,91,-99.99,,,-99.99,,2014-12-20 10:53:00,
2014-12-20 05:12:00,30.0,28.0,30.17,North,-999,0.0,-999.0,91,-99.99,,,-99.99,,2014-12-20 11:12:00,
2014-12-20 05:22:00,30.0,28.0,30.16,North,-999,0.0,-999.0,91,-99.99,,,-99.99,,2014-12-20 11:22:00,
2014-12-20 05:42:00,30.0,28.0,30.17,North,-999,0.0,-999.0,91,-99.99,,,-99.99,,2014-12-20 11:42:00,
2014-12-20 05:52:00,30.0,28.0,30.17,North,-999,0.0,-999.0,91,-99.99,,,-99.99,,2014-12-20 11:52:00,
2014-12-20 06:13:00,30.0,28.0,30.17,North,-999,0.0,-999.0,91,-99.99,,,-99.99,,2014-12-20 12:13:00,
2014-12-20 06:22:00,30.0,28.0,30.17,North,-999,0.0,-999.0,91,-99.99,,,-99.99,,2014-12-20 12:22:00,
2014-12-20 06:52:00,30.0,28.0,30.18,North,-999,0.0,-999.0,91,-99.99,,,-99.99,,2014-12-20 12:52:00,
2014-12-20 07:11:00,30.0,28.0,30.18,North,-999,0.0,-999.0,91,-99.99,,,-99.99,,2014-12-20 13:11:00,
2014-12-20 07:22:00,30.0,28.0,30.18,North,-999,0.0,-999.0,91,-99.99,,,-99.99,,2014-12-20 13:22:00,
2014-12-20 07:42:00,30.0,28.0,30.18,North,-999,0.0,-999.0,91,-99.99,,,-99.99,,2014-12-20 13:42:00,
2014-12-20 07:52:00,30.0,28.0,30.18,North,-999,0.0,-999.0,91,-99.99,,,-99.99,,2014-12-20 13:52:00,
2014-12-20 08:12:00,30.0,28.0,30.18,North,-999,0.0,-999.0,92,-99.99,,,-99.99,,2014-12-20 14:12:00,
2014-12-20 08:22:00,30.0,28.0,30.17,North,-999,0.0,-999.0,92,-99.99,,,-99.99,,2014-12-20 14:22:00,
2014-12-20 08:42:00,30.0,28.0,30.17,North,-999,0.0,-999.0,92,-99.99,,,-99.99,,2014-12-20 14:42:00,
2014-12-20 08:52:00,30.0,28.0,30.16,North,-999,0.0,-999.0,93,-99.99,,,-99.99,,2014-12-20 14:52:00,
2014-12-20 09:11:00,30.0,28.0,30.16,North,-999,0.0,-999.0,93,-99.99,,,-99.99,,2014-12-20 15:11:00,
2014-12-20 09:22:00,30.0,28.0,30.16,North,-999,0.0,-999.0,93,-99.99,,,-99.99,,2014-12-20 15:22:00,
2014-12-20 09:50:00,-999.0,-99.9,30.16,North,-999,0.0,-999.0,93,-99.99,,,-99.99,,2014-12-20 15:50:00,
2014-12-20 10:00:00,30.0,-99.9,30.16,North,-999,0.0,-999.0,93,-99.99,,,-99.99,,2014-12-20 16:00:00,
2014-12-20 10:10:00,-999.0,-99.9,30.17,North,-999,0.0,-999.0,93,-99.99,,,-99.99,,2014-12-20 16:10:00,
2014-12-20 10:20:00,30.0,28.0,30.17,North,-999,0.0,-999.0,93,-99.99,,,-99.99,,2014-12-20 16:20:00,
2014-12-20 10:31:00,-999.0,-99.9,30.17,North,-999,0.0,-999.0,93,-99.99,,,-99.99,,2014-12-20 16:31:00,
2014-12-20 10:51:00,-999.0,-99.9,30.18,North,-999,0.0,-999.0,92,-99.99,,,-99.99,,2014-12-20 16:51:00,
2014-12-20 11:00:00,-999.0,-99.9,30.18,North,-999,0.0,-999.0,91,-99.99,,,-99.99,,2014-12-20 17:00:00,
2014-12-20 11:10:00,-999.0,-99.9,30.18,North,-999,0.0,-999.0,-999,-99.99,,,-99.99,,2014-12-20 17:10:00,
2014-12-20 11:20:00,-999.0,-99.9,30.18,North,-999,0.0,-999.0,90,-99.99,,,-99.99,,2014-12-20 17:20:00,
2014-12-20 11:30:00,31.0,28.0,30.17,North,-999,0.0,-999.0,89,-99.99,,,-99.99,,2014-12-20 17:30:00,
2014-12-20 11:44:00,31.0,28.0,30.17,North,-999,0.0,-999.0,89,-99.99,,,-99.99,,2014-12-20 17:44:00,
2014-12-20 11:53:00,31.0,28.0,30.17,North,-999,0.0,-999.0,88,-99.99,,,-99.99,,2014-12-20 17:53:00,
2014-12-20 12:12:00,31.0,27.0,30.16,North,-999,0.0,-999.0,86,-99.99,,,-99.99,,2014-12-20 18:12:00,
2014-12-20 12:23:00,31.0,29.0,30.16,North,-999,0.0,-999.0,92,-99.99,,,-99.99,,2014-12-20 18:23:00,
2014-12-20 12:52:00,31.0,28.0,30.15,North,-999,0.0,-999.0,87,-99.99,,,-99.99,,2014-12-20 18:52:00,
2014-12-20 13:12:00,31.0,27.0,30.15,North,-999,0.0,-999.0,86,-99.99,,,-99.99,,2014-12-20 19:12:00,
2014-12-20 13:23:00,31.0,27.0,30.15,North,-999,0.0,-999.0,86,-99.99,,,-99.99,,2014-12-20 19:23:00,
2014-12-20 13:43:00,30.0,26.0,30.14,North,-999,0.0,-999.0,86,-99.99,,,-99.99,,2014-12-20 19:43:00,
2014-12-20 13:53:00,30.0,26.0,30.14,North,-999,0.0,-999.0,86,-99.99,,,-99.99,,2014-12-20 19:53:00,
2014-12-20 14:12:00,30.0,26.0,30.14,North,-999,0.0,-999.0,86,-99.99,,,-99.99,,2014-12-20 20:12:00,
2014-12-20 14:22:00,30.0,27.0,30.14,North,-999,0.0,-999.0,87,-99.99,,,-99.99,,2014-12-20 20:22:00,
2014-12-20 14:52:00,30.0,26.0,30.13,North,-999,0.0,-999.0,86,-99.99,,,-99.99,,2014-12-20 20:52:00,
2014-12-20 15:12:00,30.0,26.0,30.13,North,-999,0.0,-999.0,86,-99.99,,,-99.99,,2014-12-20 21:12:00,
2014-12-20 15:22:00,30.0,26.0,30.13,North,-999,0.0,-999.0,86,-99.99,,,-99.99,,2014-12-20 21:22:00,
2014-12-20 15:43:00,30.0,26.0,30.14,North,-999,0.0,-999.0,86,-99.99,,,-99.99,,2014-12-20 21:43:00,
2014-12-20 15:54:00,30.0,26.0,30.14,North,-999,0.0,-999.0,86,-99.99,,,-99.99,,2014-12-20 21:54:00,
2014-12-20 16:23:00,30.0,26.0,30.14,North,-999,0.0,-999.0,86,-99.99,,,-99.99,,2014-12-20 22:23:00,
2014-12-20 16:42:00,30.0,27.0,30.14,North,-999,0.0,-999.0,87,-99.99,,,-99.99,,2014-12-20 22:42:00,
2014-12-20 16:53:00,30.0,27.0,30.14,North,-999,0.0,-999.0,87,-99.99,,,-99.99,,2014-12-20 22:53:00,
2014-12-20 17:12:00,30.0,27.0,30.14,North,-999,0.0,-999.0,87,-99.99,,,-99.99,,2014-12-20 23:12:00,
2014-12-20 17:22:00,30.0,27.0,30.14,North,-999,0.0,-999.0,87,-99.99,,,-99.99,,2014-12-20 23:22:00,